Location: Noordwijk
(52.2400°N, 4.4500°E)
Time: 00:44:54
(UTC+00:00)

TIGRISAT - Pass Details

Date: 03 December 2022
Orbit: 601 x 684 km, 97.7° (Epoch: 29 January)

Event Time Altitude Azimuth Distance (km) Brightness Sun altitude
Exits shadow 18:11:10 26° 7° (N) 1,338 ? -23.2°
Maximum altitude 18:13:47 75° 287° (WNW) 715 ? -23.6°
Drops below altitude 10° 18:18:27 10° 203° (SSW) 2,131 ? -24.3°
Sets 18:20:42 0° 201° (SSW) 3,043 ? -24.7°
